This demonstration page uses our WeatherBlox Daily Observations layout. Learn more.

Hourly Observations for July 7, 2015

Temp ( °F °C ) Dew Point ( °F °C ) Humidity (%) Winds ( mph kmh ) Pressure ( in mb ) Visibility ( mi km ) Precip ( " mm )
12:15 am 00:15 Clear 58 14.4 54 12 86 86 N 7 11 30.09 1019 7 11.26538 0 0
12:35 am 00:35 Clear 57 14 54 12 88 88 NNE 6 9 30.09 1019 7 11.26538 0 0
12:55 am 00:55 Clear 57 13.7 53 11.8 88 88 NNE 6 9 30.09 1019 7 11.26538 0 0
1:15 am 01:15 Clear with Mist and Fog 56 13.3 53 11.7 90 90 N 6 9 30.12 1020 5 8.0467 0 0
1:35 am 01:35 Clear 56 13.6 54 12 90 90 N 5 7 30.09 1019 7 11.26538 0 0
1:55 am 01:55 Clear 57 14 53 11.8 87 87 N 6 9 30.09 1019 7 11.26538 0 0
2:15 am 02:15 Clear 56 13.5 53 11.5 88 88 N 5 7 30.12 1020 7 11.26538 0 0
2:35 am 02:35 Clear 56 13.3 53 11.5 89 89 N 5 7 30.15 1021 7 11.26538 0 0
2:55 am 02:55 Clear 56 13.4 53 11.5 88 88 N 6 9 30.15 1021 7 11.26538 0 0
3:15 am 03:15 Clear 56 13.1 52 11.2 88 88 N 3 6 30.15 1021 7 11.26538 0 0
3:35 am 03:35 Clear 56 13.1 52 11.2 88 88 N 6 9 30.15 1021 7 11.26538 0 0
3:55 am 03:55 Clear 55 12.9 52 11.1 89 89 NNW 6 9 30.15 1021 7 11.26538 0 0
4:15 am 04:15 Clear with Mist and Fog 55 12.5 52 11 91 91 N 6 9 30.15 1021 5 8.0467 0 0
4:35 am 04:35 Clear with Mist and Fog 54 12.4 51 10.7 89 89 N 5 7 30.12 1020 5 8.0467 0 0
4:55 am 04:55 Clear with Mist and Fog 55 12.5 52 11 91 91 N 5 7 30.12 1020 5 8.0467 0 0
5:15 am 05:15 Clear with Mist and Fog 53 11.9 51 10.7 92 92 N 5 7 30.12 1020 5 8.0467 0 0
5:35 am 05:35 Clear with Mist and Fog 53 11.4 50 10.1 92 92 N 3 6 30.12 1020 4 6.43736 0 0
5:55 am 05:55 Clear with Mist and Fog 52 11.3 51 10.3 94 94 Calm 30.12 1020 4 6.43736 0 0
6:15 am 06:15 Sunny with Mist and Fog 52 11.1 50 10.2 94 94 Calm 30.15 1021 4 6.43736 0 0
6:35 am 06:35 Sunny with Mist and Fog 52 11.1 50 10.2 94 94 Calm 30.15 1021 2.5 4.02335 0 0
6:55 am 06:55 Sunny with Mist and Fog 52 11.1 50 10.2 94 94 NW 3 6 30.15 1021 2 3.21868 0 0
7:15 am 07:15 Sunny with Mist and Fog 53 11.5 51 10.6 94 94 Calm 30.15 1021 2.5 4.02335 0 0
7:35 am 07:35 Sunny with Mist and Fog 55 12.7 53 11.7 94 94 Calm 30.18 1022 3 4.82802 0 0
7:55 am 07:55 Sunny with Mist and Fog 56 13.5 54 12.4 93 93 NNE 3 6 30.18 1022 3 4.82802 0 0
8:15 am 08:15 Sunny with Mist and Fog 58 14.4 55 12.7 90 90 ENE 7 11 30.18 1022 4 6.43736 0 0
8:35 am 08:35 Hazy 59 15 54 12.1 83 83 ENE 7 11 30.15 1021 5 8.0467 0 0
8:55 am 08:55 Sunny 60 15.6 54 12.2 80 80 ENE 7 11 30.15 1021 7 11.26538 0 0
9:15 am 09:15 Sunny 61 16 54 12 77 77 NE 9 15 30.15 1021 7 11.26538 0 0
9:35 am 09:35 Sunny 62 16.5 53 11.5 72 72 ENE 8 13 30.15 1021 7 11.26538 0 0
9:55 am 09:55 Sunny 63 17.2 53 11.7 70 70 ENE 9 15 30.15 1021 7 11.26538 0 0
10:15 am 10:15 Sunny 64 18 53 11.6 66 66 NE 9 15 30.12 1020 7 11.26538 0 0
10:35 am 10:35 Hazy 65 18.3 53 11.7 66 66 E 7 11 30.12 1020 5 8.0467 0 0
10:55 am 10:55 Sunny 65 18.5 52 11.3 63 63 NE 7 11 30.12 1020 7 11.26538 0 0
11:15 am 11:15 Sunny 66 18.9 52 11.3 62 62 NE 8 13 30.12 1020 7 11.26538 0 0
11:35 am 11:35 Sunny 67 19.4 53 11.4 60 60 ENE 8 13 30.12 1020 7 11.26538 0 0
11:55 am 11:55 Sunny 68 19.9 53 11.7 59 59 E 9 15 30.12 1020 7 11.26538 0 0
12:15 pm 12:15 Partly Cloudy 69 20.3 53 11.4 57 57 ENE 9 15 30.09 1019 7 11.26538 0 0
12:35 pm 12:35 Partly Cloudy 69 20.6 53 11.8 57 57 ENE 8 13 30.06 1018 7 11.26538 0 0
12:55 pm 12:55 Partly Cloudy 69 20.5 53 11.6 57 57 ENE 10 17 30.06 1018 7 11.26538 0 0
1:15 pm 13:15 Sunny 71 21.5 53 11.6 53 53 ENE 10 17 30.06 1018 7 11.26538 0 0
1:35 pm 13:35 Partly Cloudy 70 21.2 53 11.9 56 56 ENE 13 20 30.06 1018 7 11.26538 0 0
1:55 pm 13:55 Partly Cloudy 72 22.2 54 12.2 53 53 NE 12 19 30.06 1018 7 11.26538 0 0
2:15 pm 14:15 Sunny 71 21.9 51 10.7 49 49 ENE 10 17 30.03 1017 7 11.26538 0 0
2:35 pm 14:35 Sunny 72 22.1 51 10.8 49 49 NE 12 19 30.03 1017 10 16.0934 0 0
3:15 pm 15:15 Partly Cloudy 72 22.3 50 10.2 46 46 E 9 15 30.03 1017 10 16.0934 0 0
3:35 pm 15:35 Partly Cloudy 72 22.3 52 10.9 49 49 ENE 7 11 30.03 1017 10 16.0934 0 0
3:55 pm 15:55 Partly Cloudy 72 22.3 51 10.4 47 47 ENE 8 13 30.03 1017 10 16.0934 0 0
4:15 pm 16:15 Partly Cloudy 72 22.1 52 10.9 49 49 E 8 13 30.03 1017 10 16.0934 0 0
4:35 pm 16:35 Partly Cloudy 72 22.4 51 10.4 47 47 ENE 9 15 30.03 1017 10 16.0934 0 0
4:55 pm 16:55 Partly Cloudy 72 22 51 10.5 48 48 ENE 10 17 30.03 1017 10 16.0934 0 0
5:15 pm 17:15 Partly Cloudy 71 21.6 50 10.1 48 48 E 7 11 30.03 1017 10 16.0934 0 0
5:35 pm 17:35 Sunny 71 21.6 51 10.3 49 49 E 9 15 30.03 1017 10 16.0934 0 0
5:55 pm 17:55 Sunny 71 21.5 50 9.9 48 48 ENE 9 15 30.03 1017 10 16.0934 0 0
6:15 pm 18:15 Sunny 70 21.3 51 10.3 50 50 ESE 7 11 30.03 1017 10 16.0934 0 0
6:35 pm 18:35 Partly Cloudy 70 21.1 50 10.1 50 50 E 7 11 30.03 1017 10 16.0934 0 0
6:55 pm 18:55 Partly Cloudy 70 21 50 10.1 50 50 ESE 8 13 30.03 1017 10 16.0934 0 0
7:15 pm 19:15 Partly Cloudy 69 20.7 51 10.6 53 53 ESE 6 9 30.03 1017 10 16.0934 0 0
7:35 pm 19:35 Sunny 68 20.2 52 10.9 55 55 ESE 5 7 30.06 1018 10 16.0934 0 0
7:55 pm 19:55 Sunny 69 20.3 51 10.8 55 55 ESE 5 7 30.03 1017 10 16.0934 0 0
8:15 pm 20:15 Sunny 67 19.7 54 12.1 62 62 ESE 3 6 30.03 1017 10 16.0934 0 0
8:35 pm 20:35 Sunny 67 19.3 54 12.4 65 65 ESE 5 7 30.03 1017 10 16.0934 0 0
8:55 pm 20:55 Sunny 65 18.1 55 12.6 70 70 ESE 7 11 30.03 1017 10 16.0934 0 0
9:15 pm 21:15 Clear 63 17.2 55 13 76 76 SE 5 7 30.03 1017 10 16.0934 0 0
9:35 pm 21:35 Clear 62 16.5 56 13.2 81 81 ESE 3 6 30.03 1017 7 11.26538 0 0
9:55 pm 21:55 Clear 62 16.4 55 12.6 78 78 ESE 6 9 30.06 1018 10 16.0934 0 0
10:15 pm 22:15 Clear 60 15.4 54 12.3 82 82 SE 6 9 30.09 1019 10 16.0934 0 0
10:35 pm 22:35 Clear 58 14.5 54 12 85 85 ESE 7 11 30.09 1019 10 16.0934 0 0
10:55 pm 22:55 Clear 57 14.1 53 11.6 85 85 ESE 6 9 30.09 1019 10 16.0934 0 0
11:15 pm 23:15 Clear 58 14.3 53 11.6 84 84 SE 6 9 30.09 1019 10 16.0934 0 0
11:35 pm 23:35 Clear 58 14.2 53 11.5 84 84 SE 5 7 30.09 1019 10 16.0934 0 0
11:55 pm 23:55 Clear 57 13.7 52 11.2 85 85 SE 5 7 30.09 1019 10 16.0934 0 0

Powered by AerisWeather